Zurück zum Katalog

SL-8 R/B

AktivLEO
NORAD 4255·ROCKET BODY·🇷🇺 Russia

Gestartet Nov 24, 1969 von Plesetsk Cosmodrome

Loading…

Nächste Überflüge (nächste 24 Stunden)

TLE

AktuellSource: Space-Track

Epoche: Sep 14, 2026, 11:12 UTC

1 04255U 69103B   26257.46727708  .00000014  00000-0  73360-4 0  9996
2 04255  74.0157 163.6315 0010607  43.0955 130.0714 13.29657163756206

Verfolge SL-8 R/B in Echtzeit mit AllMySat

Download on the App Store